Skip Page Navigation
NASA JPL Caltech
NASA Logo - Jet Propulsion Laboratory + View the NASA Portal
+ Near-Earth Object (NEO) Program
Search JPL
JPL Home Earth Solar System Stars & Galaxies Technology
JPL Solar System Dynamics
BODIES ORBITS EPHEMERIDES TOOLS PHYSICAL DATA DISCOVERY FAQ SITE MAP
JPL Small-Body Database Browser
Search: [ help ]  
3032 Evans (1984 CA1)
Classification: Main-belt Asteroid          SPK-ID: 2003032
Ephemeris | Orbit Diagram | Orbital Elements | Physical Parameters | Discovery Circumstances ]

[ hide orbit diagram ]
Orbit Diagram
Note: Make sure you have Java enabled on your browser to see the applet. This applet is provided as a 3D orbit visualization tool. The applet was implemented using 2-body methods, and hence should not be used for determining accurate long-term trajectories (over several years or decades) or planetary encounter circumstances. For accurate long-term ephemerides, please instead use our Horizons system.
Orbit Viewer

Additional Notes: the orbits shown in the applet are color coded. The planets are white lines, and the asteroid/comet is a blue line. The bright white line indicates the portion of the orbit that is above the ecliptic plane, and the darker portion is below the ecliptic plane. Likewise for the asteroid/comet orbit, the light blue indicates the portion above the ecliptic plane, and the dark blue the portion below the ecliptic plane.

Orbit Viewer applet originally written and kindly provided by Osamu Ajiki (AstroArts), and further modified by Ron Baalke (JPL).


Orbital Elements at Epoch 2456400.5 (2013-Apr-18.0) TDB
Reference: JPL 1 (heliocentric ecliptic J2000)
 Element Value Uncertainty (1-sigma)   Units 
e .08483667452266012 8.044e-08  
a 2.891737578704304 1.7542e-08 AU
q 2.646412178934821 2.297e-07 AU
i 3.225736473605501 5.3249e-06 deg
node 88.40655277937071 0.00012671 deg
peri 276.0896612755635 0.00013103 deg
M 124.2045310739258 3.2365e-05 deg
tp 2455780.814001237339
(2011-Aug-07.31400124)
0.00016026 JED
period 1796.125774363079
4.92
1.6344e-05
4.475e-08
d
yr
n .2004313980337257 1.8238e-09 deg/d
Q 3.137062978473786 1.9031e-08 AU
  Orbit Determination Parameters
   # obs. used (total)      1357  
   data-arc span      22061 days (60.40 yr)  
   first obs. used      1952-11-12  
   last obs. used      2013-04-07  
   planetary ephem.      DE405  
   SB-pert. ephem.      SB405-CPV-2  
   condition code      0  
   fit RMS      .60034  
   data source      ORB  
   producer      Otto Matic  
   solution date      2013-Apr-29 12:55:26  

Additional Information
 Earth MOID = 1.64615 AU 
 T_jup = 3.283 
[ show covariance matrix ]

Ephemeris | Orbit Diagram | Orbital Elements | Physical Parameters | Discovery Circumstances ]

Physical Parameter Table
Parameter Symbol Value Units Sigma Reference Notes
absolute magnitude H 11.40 mag n/a IRAS-A-FPA-3-RDR-IMPS-V6.0 IRAS observations used: 2
diameter diameter 22.97 km 2.4 IRAS-A-FPA-3-RDR-IMPS-V6.0 IRAS observations used: 2
geometric albedo albedo 0.0923   0.023 IRAS-A-FPA-3-RDR-IMPS-V6.0 IRAS observations used: 2

3032 Evans (1984 CA1)          Discovered 1984-Feb-08 by Bowell, E. at Flagstaff (AM) (688)
Discovered at the Anderson Mesa station, which is operated by the Lowell Observatory.
Reference: DISCOVERY.DBLast Updated: 2003-08-29

Alternate Designations
 1984 CA1 = 1935 FD = 1952 VA = 1957 TL = 1957 UO = 1969 BF = 1972 XT1 = 1976 PK = 1979 FV2 
Ephemeris | Orbit Diagram | Orbital Elements | Physical Parameters | Discovery Circumstances ]
ABOUT SSD CREDITS/AWARDS PRIVACY/COPYRIGHT GLOSSARY LINKS
FirstGov 2013-May-22 03:05 UT
(server date/time)  
NASA Home Page
Site Manager:   Donald K. Yeomans
Webmaster  Alan B. Chamberlin